Time,TemperatureF,DewpointF,PressureIn,WindDirection,WindDirectionDegrees,WindSpeedMPH,WindSpeedGustMPH,Humidity,HourlyPrecipIn,Conditions,Clouds,dailyrainin,SolarRadiationWatts/m^2,SoftwareType,DateUTC
2013-07-10 00:01:00,55.0,54.0,-100.00,NNE,20,5.0,12.0,97,-99.99,,,0.00,0.000000,,2013-07-10 07:01:00,
2013-07-10 00:11:00,55.0,54.0,-100.00,NNE,20,5.0,12.0,97,-99.99,,,0.00,0.000000,,2013-07-10 07:11:00,
2013-07-10 00:43:00,55.0,54.0,-100.00,NNE,24,5.0,15.0,97,-99.99,,,0.00,0.000000,,2013-07-10 07:43:00,
2013-07-10 00:53:00,55.0,54.0,-100.00,NNE,24,5.0,15.0,97,-99.99,,,0.00,0.000000,,2013-07-10 07:53:00,
2013-07-10 01:01:00,55.0,54.0,-100.00,NNE,24,5.0,15.0,97,-99.99,,,0.00,0.000000,,2013-07-10 08:01:00,
2013-07-10 01:11:00,55.0,54.0,-100.00,NNE,24,5.0,15.0,97,-99.99,,,0.00,0.000000,,2013-07-10 08:11:00,
2013-07-10 01:42:00,55.0,54.0,-100.00,NNE,18,5.0,12.0,97,-99.99,,,0.00,0.000000,,2013-07-10 08:42:00,
2013-07-10 01:53:00,55.0,54.0,-100.00,NNE,18,5.0,12.0,97,-99.99,,,0.00,0.000000,,2013-07-10 08:53:00,
2013-07-10 02:02:00,55.0,54.0,-100.00,NNE,18,5.0,12.0,97,-99.99,,,0.00,0.000000,,2013-07-10 09:02:00,
2013-07-10 02:12:00,55.0,54.0,-100.00,NNE,18,5.0,12.0,97,-99.99,,,0.00,0.000000,,2013-07-10 09:12:00,
2013-07-10 02:42:00,55.0,54.0,-100.00,NNE,23,5.0,11.0,98,-99.99,,,0.00,0.000000,,2013-07-10 09:42:00,
2013-07-10 02:53:00,55.0,54.0,-100.00,NNE,23,5.0,11.0,98,-99.99,,,0.00,0.000000,,2013-07-10 09:53:00,
2013-07-10 03:01:00,55.0,54.0,-100.00,NNE,23,5.0,11.0,98,-99.99,,,0.00,0.000000,,2013-07-10 10:01:00,
2013-07-10 03:13:00,55.0,54.0,-100.00,NNE,23,5.0,11.0,98,-99.99,,,0.00,0.000000,,2013-07-10 10:13:00,
2013-07-10 03:50:00,-999.0,-99.9,-100.00,NNE,29,6.0,13.0,-999,-99.99,,,-99.99,,,2013-07-10 10:50:00,
2013-07-10 04:00:00,-999.0,-99.9,-100.00,NNE,29,6.0,13.0,-999,-99.99,,,-99.99,,,2013-07-10 11:00:00,
2013-07-10 04:11:00,55.0,54.0,-100.00,NNE,29,6.0,13.0,98,-99.99,,,0.00,0.000000,,2013-07-10 11:11:00,
2013-07-10 04:43:00,55.0,55.0,-100.00,NNE,33,5.0,16.0,98,-99.99,,,0.00,0.000000,,2013-07-10 11:43:00,
2013-07-10 04:52:00,55.0,55.0,-100.00,NNE,33,5.0,16.0,98,-99.99,,,0.00,0.000000,,2013-07-10 11:52:00,
2013-07-10 05:01:00,55.0,55.0,-100.00,NNE,33,5.0,16.0,98,-99.99,,,0.00,0.000000,,2013-07-10 12:01:00,
2013-07-10 05:11:00,55.0,55.0,-100.00,NNE,33,5.0,16.0,98,-99.99,,,0.00,0.000000,,2013-07-10 12:11:00,
2013-07-10 05:43:00,55.0,54.0,-100.00,NNE,20,7.0,17.0,97,-99.99,,,0.00,0.000000,,2013-07-10 12:43:00,
2013-07-10 05:53:00,55.0,54.0,-100.00,NNE,20,7.0,17.0,97,-99.99,,,0.00,0.000000,,2013-07-10 12:53:00,
2013-07-10 06:01:00,55.0,54.0,-100.00,NNE,20,7.0,17.0,97,-99.99,,,0.00,0.000000,,2013-07-10 13:01:00,
2013-07-10 06:11:00,55.0,54.0,-100.00,NNE,20,7.0,17.0,97,-99.99,,,0.00,0.000000,,2013-07-10 13:11:00,
2013-07-10 06:43:00,55.0,53.0,-100.00,NNE,17,7.0,17.0,94,-99.99,,,0.00,6.620000,,2013-07-10 13:43:00,
2013-07-10 06:52:00,55.0,53.0,-100.00,NNE,17,7.0,17.0,94,-99.99,,,0.00,6.620000,,2013-07-10 13:52:00,
2013-07-10 07:01:00,55.0,53.0,-100.00,NNE,17,7.0,17.0,94,-99.99,,,0.00,6.620000,,2013-07-10 14:01:00,
2013-07-10 07:11:00,55.0,53.0,-100.00,NNE,17,7.0,17.0,94,-99.99,,,0.00,6.620000,,2013-07-10 14:11:00,
2013-07-10 07:43:00,55.0,53.0,-100.00,NNE,20,6.0,16.0,93,-99.99,,,0.00,40.560001,,2013-07-10 14:43:00,
2013-07-10 07:53:00,55.0,53.0,-100.00,NNE,20,6.0,16.0,93,-99.99,,,0.00,40.560001,,2013-07-10 14:53:00,
2013-07-10 08:01:00,55.0,53.0,-100.00,NNE,20,6.0,16.0,93,-99.99,,,0.00,40.560001,,2013-07-10 15:01:00,
2013-07-10 08:11:00,55.0,53.0,-100.00,NNE,20,6.0,16.0,93,-99.99,,,0.00,40.560001,,2013-07-10 15:11:00,
2013-07-10 08:42:00,56.0,53.0,-100.00,North,4,8.0,16.0,90,-99.99,,,0.00,144.809998,,2013-07-10 15:42:00,
2013-07-10 08:52:00,56.0,53.0,-100.00,North,4,8.0,16.0,90,-99.99,,,0.00,144.809998,,2013-07-10 15:52:00,
2013-07-10 09:01:00,56.0,53.0,-100.00,North,4,8.0,16.0,90,-99.99,,,0.00,144.809998,,2013-07-10 16:01:00,
2013-07-10 09:11:00,56.0,53.0,-100.00,North,4,8.0,16.0,90,-99.99,,,0.00,144.809998,,2013-07-10 16:11:00,
2013-07-10 09:44:00,58.0,53.0,-100.00,North,11,6.0,19.0,84,-99.99,,,-99.99,301.589996,,2013-07-10 16:44:00,
2013-07-10 09:53:00,58.0,53.0,-100.00,North,11,6.0,19.0,84,-99.99,,,-99.99,301.589996,,2013-07-10 16:53:00,
2013-07-10 10:01:00,58.0,53.0,-100.00,North,11,6.0,19.0,84,-99.99,,,-99.99,301.589996,,2013-07-10 17:01:00,
2013-07-10 10:11:00,58.0,53.0,-100.00,North,11,6.0,19.0,84,-99.99,,,-99.99,301.589996,,2013-07-10 17:11:00,
2013-07-10 10:42:00,58.0,53.0,-100.00,North,353,9.0,18.0,83,-99.99,,,0.00,529.609985,,2013-07-10 17:42:00,
2013-07-10 10:53:00,58.0,53.0,-100.00,North,353,9.0,18.0,83,-99.99,,,0.00,529.609985,,2013-07-10 17:53:00,
2013-07-10 11:02:00,58.0,53.0,-100.00,North,353,9.0,18.0,83,-99.99,,,0.00,529.609985,,2013-07-10 18:02:00,
2013-07-10 11:11:00,58.0,53.0,-100.00,North,353,9.0,18.0,83,-99.99,,,0.00,529.609985,,2013-07-10 18:11:00,
2013-07-10 11:44:00,59.0,53.0,-100.00,North,349,11.0,19.0,80,-99.99,,,0.00,822.840027,,2013-07-10 18:44:00,
2013-07-10 11:53:00,59.0,53.0,-100.00,North,349,11.0,19.0,80,-99.99,,,0.00,822.840027,,2013-07-10 18:53:00,
2013-07-10 12:01:00,59.0,53.0,-100.00,North,349,11.0,19.0,80,-99.99,,,0.00,822.840027,,2013-07-10 19:01:00,
2013-07-10 12:11:00,59.0,53.0,-100.00,North,349,11.0,19.0,80,-99.99,,,0.00,822.840027,,2013-07-10 19:11:00,
2013-07-10 12:42:00,60.0,54.0,-100.00,North,352,12.0,23.0,78,-99.99,,,0.00,911.159973,,2013-07-10 19:42:00,
2013-07-10 12:53:00,60.0,54.0,-100.00,North,352,12.0,23.0,78,-99.99,,,0.00,911.159973,,2013-07-10 19:53:00,
2013-07-10 13:01:00,60.0,54.0,-100.00,North,352,12.0,23.0,78,-99.99,,,0.00,911.159973,,2013-07-10 20:01:00,
2013-07-10 13:11:00,60.0,54.0,-100.00,North,352,12.0,23.0,78,-99.99,,,0.00,911.159973,,2013-07-10 20:11:00,
2013-07-10 13:43:00,61.0,54.0,-100.00,North,353,11.0,23.0,77,-99.99,,,0.00,946.030029,,2013-07-10 20:43:00,
2013-07-10 13:52:00,61.0,54.0,-100.00,North,353,11.0,23.0,77,-99.99,,,0.00,946.030029,,2013-07-10 20:52:00,
2013-07-10 14:01:00,61.0,54.0,-100.00,North,353,11.0,23.0,77,-99.99,,,0.00,946.030029,,2013-07-10 21:01:00,
2013-07-10 14:11:00,61.0,54.0,-100.00,North,353,11.0,23.0,77,-99.99,,,0.00,946.030029,,2013-07-10 21:11:00,
2013-07-10 14:41:00,61.0,53.0,-100.00,North,357,13.0,25.0,74,-99.99,,,0.00,934.409973,,2013-07-10 21:41:00,
2013-07-10 14:52:00,61.0,53.0,-100.00,North,357,13.0,25.0,74,-99.99,,,0.00,934.409973,,2013-07-10 21:52:00,
2013-07-10 15:01:00,61.0,53.0,-100.00,North,357,13.0,25.0,74,-99.99,,,0.00,934.409973,,2013-07-10 22:01:00,
2013-07-10 15:11:00,61.0,53.0,-100.00,North,357,13.0,25.0,74,-99.99,,,0.00,934.409973,,2013-07-10 22:11:00,
2013-07-10 15:42:00,61.0,52.0,-100.00,North,355,12.0,26.0,72,-99.99,,,0.00,873.969971,,2013-07-10 22:42:00,
2013-07-10 15:53:00,61.0,52.0,-100.00,North,355,12.0,26.0,72,-99.99,,,0.00,873.969971,,2013-07-10 22:53:00,
2013-07-10 16:01:00,61.0,52.0,-100.00,North,355,12.0,26.0,72,-99.99,,,0.00,873.969971,,2013-07-10 23:01:00,
2013-07-10 16:11:00,61.0,52.0,-100.00,North,355,12.0,26.0,72,-99.99,,,0.00,873.969971,,2013-07-10 23:11:00,
2013-07-10 16:52:00,61.0,51.0,-100.00,North,356,13.0,26.0,70,-99.99,,,0.00,767.979980,,2013-07-10 23:52:00,
2013-07-10 17:01:00,61.0,51.0,-100.00,North,356,13.0,26.0,70,-99.99,,,0.00,767.979980,,2013-07-11 00:01:00,
2013-07-10 17:11:00,61.0,51.0,-100.00,North,356,13.0,26.0,70,-99.99,,,0.00,767.979980,,2013-07-11 00:11:00,
2013-07-10 17:42:00,60.0,51.0,-100.00,North,355,12.0,28.0,71,-99.99,,,0.00,624.799988,,2013-07-11 00:42:00,
2013-07-10 17:52:00,60.0,51.0,-100.00,North,355,12.0,28.0,71,-99.99,,,0.00,624.799988,,2013-07-11 00:52:00,
2013-07-10 18:01:00,60.0,51.0,-100.00,North,355,12.0,28.0,71,-99.99,,,0.00,624.799988,,2013-07-11 01:01:00,
2013-07-10 18:11:00,60.0,51.0,-100.00,North,355,12.0,28.0,71,-99.99,,,0.00,624.799988,,2013-07-11 01:11:00,
2013-07-10 18:43:00,60.0,51.0,-100.00,North,353,11.0,24.0,71,-99.99,,,0.00,449.660004,,2013-07-11 01:43:00,
2013-07-10 18:52:00,60.0,51.0,-100.00,North,353,11.0,24.0,71,-99.99,,,0.00,449.660004,,2013-07-11 01:52:00,
2013-07-10 19:02:00,60.0,51.0,-100.00,North,353,11.0,24.0,71,-99.99,,,0.00,449.660004,,2013-07-11 02:02:00,
2013-07-10 19:11:00,60.0,51.0,-100.00,North,353,11.0,24.0,71,-99.99,,,0.00,449.660004,,2013-07-11 02:11:00,
2013-07-10 19:43:00,59.0,51.0,-100.00,North,357,9.0,20.0,74,-99.99,,,0.00,266.029999,,2013-07-11 02:43:00,
2013-07-10 19:53:00,59.0,51.0,-100.00,North,357,9.0,20.0,74,-99.99,,,0.00,266.029999,,2013-07-11 02:53:00,
2013-07-10 20:01:00,59.0,51.0,-100.00,North,357,9.0,20.0,74,-99.99,,,0.00,266.029999,,2013-07-11 03:01:00,
2013-07-10 20:11:00,59.0,51.0,-100.00,North,357,9.0,20.0,74,-99.99,,,0.00,266.029999,,2013-07-11 03:11:00,
2013-07-10 21:12:00,58.0,51.0,-100.00,North,357,6.0,12.0,78,-99.99,,,0.00,75.779999,,2013-07-11 04:12:00,
2013-07-10 21:42:00,56.0,51.0,-100.00,NNE,14,4.0,10.0,81,-99.99,,,0.00,1.390000,,2013-07-11 04:42:00,
2013-07-10 21:53:00,56.0,51.0,-100.00,NNE,14,4.0,10.0,81,-99.99,,,0.00,1.390000,,2013-07-11 04:53:00,
2013-07-10 22:01:00,56.0,51.0,-100.00,NNE,14,4.0,10.0,81,-99.99,,,0.00,1.390000,,2013-07-11 05:01:00,
2013-07-10 22:12:00,56.0,51.0,-100.00,NNE,14,4.0,10.0,81,-99.99,,,0.00,1.390000,,2013-07-11 05:12:00,
2013-07-10 22:43:00,56.0,50.0,-100.00,NE,34,4.0,13.0,82,-99.99,,,0.00,0.000000,,2013-07-11 05:43:00,
2013-07-10 22:52:00,56.0,50.0,-100.00,NE,34,4.0,13.0,82,-99.99,,,0.00,0.000000,,2013-07-11 05:52:00,
2013-07-10 23:01:00,56.0,50.0,-100.00,NE,34,4.0,13.0,82,-99.99,,,0.00,0.000000,,2013-07-11 06:01:00,
2013-07-10 23:11:00,56.0,50.0,-100.00,NE,34,4.0,13.0,82,-99.99,,,0.00,0.000000,,2013-07-11 06:11:00,
2013-07-10 23:43:00,55.0,50.0,-100.00,NE,36,4.0,10.0,84,-99.99,,,0.00,0.000000,,2013-07-11 06:43:00,
2013-07-10 23:53:00,55.0,50.0,-100.00,NE,36,4.0,10.0,84,-99.99,,,0.00,0.000000,,2013-07-11 06:53:00,